[TLELIST] Archives

 

[TLELIST] Current TLEs

August 12th 2025 PDT

0 HST 1 20580U 90037B 25223.78159918 .00006587 00000-0 24175-3 0 9994 2 20580 28.4691 27.9314 0002043 354.3077 5.7494 15.25862787741182 0 ISS (ZARYA) 1 25544U 98067A 25224.15196245 .00009249 00000-0 16708-3 0 9997 2 25544 51.6349 29.6760 0001148 180.0973 180.0016 15.50469254523841 0 CXO 1 25867U 99040B 25224.97414867 .00000909 00000-0 00000+0 0 9998 2 25867 50.6254 127.3019 8337354 310.0458 0.8890 0.37804935 27316 ...Continue Reading

[TLELIST] Current TLEs

August 12th 2025 PDT

0 HST 1 20580U 90037B 25223.78159918 .00006587 00000-0 24175-3 0 9994 2 20580 28.4691 27.9314 0002043 354.3077 5.7494 15.25862787741182 0 ISS (ZARYA) 1 25544U 98067A 25224.15196245 .00009249 00000-0 16708-3 0 9997 2 25544 51.6349 29.6760 0001148 180.0973 180.0016 15.50469254523841 0 CXO 1 25867U 99040B 25224.97414867 .00000909 00000-0 00000+0 0 9998 2 25867 50.6254 127.3019 8337354 310.0458 0.8890 0.37804935 27316 ...Continue Reading

[TLELIST] Current TLEs

August 11th 2025 PDT

0 HST 1 20580U 90037B 25222.80051717 .00006978 00000-0 25669-3 0 9997 2 20580 28.4690 34.5871 0001960 343.4910 16.5621 15.25850415741036 0 ISS (ZARYA) 1 25544U 98067A 25222.92732718 .00008419 00000-0 15293-3 0 9997 2 25544 51.6346 35.7476 0001307 177.0594 183.0403 15.50446935523655 0 CXO 1 25867U 99040B 25224.97414867 .00000909 00000-0 00000+0 0 9998 2 25867 50.6254 127.3019 8337354 310.0458 0.8890 0.37804935 27316 ...Continue Reading

[TLELIST] Current TLEs

August 10th 2025 PDT

0 HST 1 20580U 90037B 25221.55780125 .00006727 00000-0 24729-3 0 9998 2 20580 28.4688 43.0169 0001854 329.6399 30.4088 15.25834257740843 0 ISS (ZARYA) 1 25544U 98067A 25222.48428578 .00007827 00000-0 14282-3 0 9993 2 25544 51.6367 37.9417 0001853 175.3844 230.1801 15.50428464523587 0 CXO 1 25867U 99040B 25224.97414867 .00000909 00000-0 00000+0 0 9998 2 25867 50.6254 127.3019 8337354 310.0458 0.8890 0.37804935 27316 ...Continue Reading

[TLELIST] Current TLEs

August 10th 2025 PDT

0 HST 1 20580U 90037B 25221.55780125 .00006727 00000-0 24729-3 0 9998 2 20580 28.4688 43.0169 0001854 329.6399 30.4088 15.25834257740843 0 ISS (ZARYA) 1 25544U 98067A 25222.48428578 .00007827 00000-0 14282-3 0 9993 2 25544 51.6367 37.9417 0001853 175.3844 230.1801 15.50428464523587 0 CXO 1 25867U 99040B 25224.97414867 .00000909 00000-0 00000+0 0 9998 2 25867 50.6254 127.3019 8337354 310.0458 0.8890 0.37804935 27316 ...Continue Reading

[TLELIST] Current TLEs

August 9th 2025 PDT

0 HST 1 20580U 90037B 25220.83832794 .00006225 00000-0 22831-3 0 9993 2 20580 28.4688 47.8976 0001812 321.4971 38.5494 15.25825232740732 0 ISS (ZARYA) 1 25544U 98067A 25221.25173611 .00006550 00000-0 12095-3 0 9994 2 25544 51.6366 44.0509 0001805 168.6393 192.8720 15.50401967523390 0 CXO 1 25867U 99040B 25222.32971541 .00000969 00000-0 00000-0 0 9999 2 25867 50.5518 127.4471 8337855 310.0112 0.8647 0.37797802 16147 ...Continue Reading

[TLELIST] Current TLEs

August 9th 2025 PDT

0 HST 1 20580U 90037B 25220.83832794 .00006225 00000-0 22831-3 0 9993 2 20580 28.4688 47.8976 0001812 321.4971 38.5494 15.25825232740732 0 ISS (ZARYA) 1 25544U 98067A 25221.25173611 .00006550 00000-0 12095-3 0 9994 2 25544 51.6366 44.0509 0001805 168.6393 192.8720 15.50401967523390 0 CXO 1 25867U 99040B 25222.32971541 .00000969 00000-0 00000-0 0 9999 2 25867 50.5518 127.4471 8337855 310.0112 0.8647 0.37797802 16147 ...Continue Reading

[TLELIST] Current TLEs

August 9th 2025 PDT

0 HST 1 20580U 90037B 25220.83832794 .00006225 00000-0 22831-3 0 9993 2 20580 28.4688 47.8976 0001812 321.4971 38.5494 15.25825232740732 0 ISS (ZARYA) 1 25544U 98067A 25221.25173611 .00006550 00000-0 12095-3 0 9994 2 25544 51.6366 44.0509 0001805 168.6393 192.8720 15.50401967523390 0 CXO 1 25867U 99040B 25222.32971541 .00000969 00000-0 00000-0 0 9999 2 25867 50.5518 127.4471 8337855 310.0112 0.8647 0.37797802 16147 ...Continue Reading

[TLELIST] Current TLEs

August 8th 2025 PDT

0 HST 1 20580U 90037B 25219.79181381 .00005617 00000-0 20530-3 0 9993 2 20580 28.4688 54.9965 0001770 309.2871 50.7567 15.25813245740834 0 ISS (ZARYA) 1 25544U 98067A 25219.96234157 .00005989 00000-0 11133-3 0 9999 2 25544 51.6348 50.4484 0001496 166.7359 193.3669 15.50382932523196 0 CXO 1 25867U 99040B 25222.32971541 .00000969 00000-0 00000-0 0 9999 2 25867 50.5518 127.4471 8337855 310.0112 0.8647 0.37797802 16147 ...Continue Reading

[TLELIST] Current TLEs

August 8th 2025 PDT

0 HST 1 20580U 90037B 25219.79181381 .00005617 00000-0 20530-3 0 9993 2 20580 28.4688 54.9965 0001770 309.2871 50.7567 15.25813245740834 0 ISS (ZARYA) 1 25544U 98067A 25219.96234157 .00005989 00000-0 11133-3 0 9999 2 25544 51.6348 50.4484 0001496 166.7359 193.3669 15.50382932523196 0 CXO 1 25867U 99040B 25222.32971541 .00000969 00000-0 00000-0 0 9999 2 25867 50.5518 127.4471 8337855 310.0112 0.8647 0.37797802 16147 ...Continue Reading
  • This mailing list is a public mailing list - anyone may join or leave, at any time.
  • This mailing list is announce-only.

International Space Station (ISS) / Hubble Space Telescope (HST) / Chandra X-Ray Observatory Orbital Data via EMAIL

Privacy Policy:

Private list